Location: Remedello Sotto
(45.2500°N, 10.3667°E)
Time: 17:40:21
(UTC+00:00)

Cosmos 1814 Rocket - Visible Passes

Search period start: 29 September 2023 00:00
Search period end: 09 October 2023 00:00
Orbit: 743 x 786 km, 74.1° (Epoch: 29 September)

Date Brightness Start Highest point End Pass type
(mag) Time Alt. Az. Time Alt. Az. Time Alt. Az.
29 Sep 6.8 21:25:52 10° N 21:26:13 12° N 21:26:13 12° N visible
30 Sep 6.6 20:48:11 10° N 20:48:42 12° N 20:48:42 12° N visible
01 Oct 6.5 20:10:52 10° NNE 20:11:11 11° NNE 20:11:11 11° NNE visible
02 Oct 6.8 21:13:24 10° NNW 21:13:52 13° NNW 21:13:52 13° NNW visible
03 Oct 6.5 20:35:33 10° N 20:36:23 14° N 20:36:23 14° N visible
04 Oct 6.3 19:57:56 10° N 19:58:55 14° NNE 19:58:55 14° NNE visible
05 Oct 6.3 19:20:43 10° NNE 19:21:28 12° NNE 19:21:28 12° NNE visible
05 Oct 6.7 21:01:01 10° NNW 21:01:39 14° NNW 21:01:39 14° NNW visible
06 Oct 6.3 20:23:02 10° NNW 20:24:14 17° N 20:24:14 17° N visible
07 Oct 6.0 19:45:14 10° N 19:46:49 18° N 19:46:49 18° N visible
08 Oct 5.9 19:07:40 10° N 19:09:26 16° NNE 19:09:26 16° NNE visible
08 Oct 6.6 20:48:45 10° NNW 20:49:37 15° NNW 20:49:37 15° NNW visible
